Voltar ao catálogo

COSMOS 2581

AtivoMilitarPO
NORAD 62902·PAYLOAD·🇷🇺 Russia

Lançado Feb 5, 2025 de Plesetsk Cosmodrome

Loading…

Próximas Passagens (próximas 24 horas)

TLE

AtualizadoSource: Space-Track

Época: Sep 14, 2026, 18:28 UTC

1 62902U 25026A   26257.76997721  .00000988  00000-0  87687-4 0  9999
2 62902  81.9989 343.0768 0011376 116.8069 243.4315 14.95171138 87608

Acompanhe COSMOS 2581 em tempo real com AllMySat

Download on the App Store